This is the latest recevied weather packets stored in our database for station/object KI5GCD-13. If no packets are shown the sender has not sent any weather packets the latest 1 day(s).
| Time | Temp. | Humidity | Pressure | Rain* | Wind** | Luminosity | Snow |
|---|---|---|---|---|---|---|---|
| 1778020187 | 10° C | 90% | 1005.1 hPa | 0 mm | 3.58 m/s, 27° | - | - |
| 1778019887 | 10° C | 91% | 1004.9 hPa | 0 mm | 2.24 m/s, 141° | - | - |
| 1778019587 | 10° C | 90% | 1004.8 hPa | 0 mm | 0.45 m/s, 249° | - | - |
| 1778019287 | 10° C | 90% | 1004.6 hPa | 0 mm | 2.24 m/s, 330° | - | - |
| 1778018987 | 10° C | 90% | 1004.7 hPa | 0 mm | 1.34 m/s, 130° | - | - |
| 1778018687 | 10° C | 91% | 1004.8 hPa | 0 mm | 1.34 m/s, 275° | - | - |
| 1778018387 | 10° C | 91% | 1004.7 hPa | 0 mm | 2.68 m/s, 6° | - | - |
| 1778018087 | 10° C | 92% | 1004.8 hPa | 0 mm | 0.45 m/s, 205° | - | - |
| 1778017787 | 10° C | 93% | 1004.9 hPa | 0 mm | 1.79 m/s, 4° | - | - |
| 1778017487 | 10° C | 93% | 1004.7 hPa | 0 mm | 2.24 m/s, 47° | - | - |
| 1778017187 | 10° C | 94% | 1005 hPa | 0 mm | 0.89 m/s, 174° | - | - |
| 1778016887 | 10° C | 94% | 1004.8 hPa | 0 mm | 1.34 m/s, 136° | - | - |
| 1778016587 | 10° C | 94% | 1004.6 hPa | 0 mm | 3.13 m/s, 5° | - | - |
| 1778016287 | 10° C | 94% | 1004.7 hPa | 0 mm | 3.58 m/s, 346° | - | - |
| 1778015987 | 10.56° C | 95% | 1004.6 hPa | 0 mm | 1.79 m/s, 68° | - | - |
| 1778015687 | 10.56° C | 94% | 1004.6 hPa | 0 mm | 3.58 m/s, 55° | - | - |
| 1778015387 | 11.11° C | 94% | 1004.3 hPa | 0 mm | 0.89 m/s, 28° | - | - |
| 1778015087 | 11.11° C | 93% | 1004.5 hPa | 0 mm | 2.24 m/s, 46° | - | - |
| 1778014788 | 11.11° C | 93% | 1004.3 hPa | 0 mm | 0.89 m/s, 290° | - | - |
| 1778014487 | 11.11° C | 94% | 1004.5 hPa | 0 mm | 1.79 m/s, 32° | - | - |
| 1778014187 | 11.11° C | 94% | 1004.4 hPa | 0 mm | 3.13 m/s, 3° | - | - |
| 1778013887 | 11.11° C | 94% | 1004.4 hPa | 0 mm | 2.68 m/s, 28° | - | - |
| 1778013587 | 11.11° C | 94% | 1004.5 hPa | 0 mm | 2.68 m/s, 19° | - | - |
| 1778013287 | 11.11° C | 93% | 1004.5 hPa | 0 mm | 1.34 m/s, 69° | - | - |
| 1778012987 | 11.67° C | 93% | 1004.6 hPa | 0 mm | 1.79 m/s, 88° | - | - |
* Rain latest hour (hover to see other rain measurements)
** Current wind speed in m/s (hover to see current wind gust speed)